Date String (YYYY-MM-DD hh:mm:ss) UTC,Instrument flags,Ambient pressure (hPa),Sample flow (lpm),Bypass flow (lpm),Sample temperature (°C),Ambient temperature (°C),ASC tube jacket temperature (°C),LED temperature (°C),Box temperature (°C),Sample RH (%),Span deviation,Mass concentration (μg/m³),Mass concentration (μg/m³),Mass concentration (μg/m³)
DateTimeUTC,F1_M11,P_M11,Q1_M11,Q2_M11,T1_M11,T2_M11,T3_M11,T4_M11,T5_M11,U1_M11,ZSPAN_M11,X2_M11,X0_M11,X1_M11
2022-07-23 22:00:00,,0829.3,4.99,0.00,29.8,27.0,00.0,37.8,31.2,33.1,0000.0,0004.98,0008.89,0004.13
2022-07-23 22:01:00,,0829.4,5.00,0.00,29.9,27.2,00.0,37.9,31.2,33.2,0000.0,0004.96,0008.78,0004.14
2022-07-23 22:02:00,,0829.5,5.00,0.00,29.9,27.4,00.0,37.9,31.2,33.6,0000.0,0005.01,0008.92,0004.15
2022-07-23 22:03:00,,0829.5,4.99,0.00,30.0,27.6,00.0,38.0,31.3,35.0,0000.0,0005.05,0009.00,0004.17
2022-07-23 22:04:00,,0829.5,5.01,0.00,30.2,27.8,00.0,38.1,31.4,35.3,0000.0,0005.07,0008.99,0004.18
2022-07-23 22:05:00,,0829.5,5.00,0.00,30.4,28.0,00.0,38.1,31.6,34.1,0000.0,0005.13,0009.09,0004.20
2022-07-23 22:06:00,,0829.5,5.00,0.00,30.7,28.1,00.0,38.2,31.7,32.4,0000.0,0005.23,0009.38,0004.24
2022-07-23 22:07:00,,0829.5,5.00,0.00,30.8,27.7,00.0,38.2,31.6,32.5,0000.0,0005.29,0010.02,0004.26
2022-07-23 22:08:00,,0829.4,5.01,0.00,30.8,27.1,00.0,38.2,31.5,32.7,0000.0,0005.35,0010.16,0004.27
2022-07-23 22:09:00,,0829.5,4.99,0.00,30.8,26.8,00.0,38.3,31.4,33.0,0000.0,0005.42,0010.30,0004.30
2022-07-23 22:10:00,,0829.5,5.01,0.00,30.7,26.8,00.0,38.4,31.2,33.3,0000.0,0005.54,0010.65,0004.32
2022-07-23 22:11:00,,0829.5,5.01,0.00,30.6,26.9,00.0,38.4,31.2,33.9,0000.0,0005.68,0010.91,0004.37
2022-07-23 22:12:00,,0829.5,4.99,0.00,30.5,27.1,00.0,38.5,31.3,34.7,0000.0,0005.83,0011.28,0004.42
2022-07-23 22:13:00,,0829.3,5.00,0.00,30.5,27.3,00.0,38.5,31.3,35.0,0000.0,0005.90,0011.35,0004.48
2022-07-23 22:14:00,,0829.4,5.01,0.00,30.7,27.5,00.0,38.6,31.5,35.1,0000.0,0005.97,0011.54,0004.50
2022-07-23 22:15:00,,0829.2,5.01,0.00,30.9,27.7,00.0,38.6,31.7,35.8,0000.0,0006.01,0011.71,0004.54
2022-07-23 22:16:00,,0829.2,4.98,0.00,31.2,27.9,00.0,38.7,31.8,33.5,0000.0,0006.05,0011.78,0004.57
2022-07-23 22:17:00,,0829.2,5.01,0.00,31.3,28.0,00.0,38.7,31.9,33.0,0000.0,0006.08,0012.16,0004.58
2022-07-23 22:18:00,,0829.2,5.00,0.00,31.4,28.2,00.0,38.8,31.9,32.8,0000.0,0006.11,0011.79,0004.61
2022-07-23 22:19:00,,0829.1,5.01,0.00,31.4,28.2,00.0,38.9,31.9,32.7,0000.0,0006.17,0012.17,0004.63
2022-07-23 22:20:00,,0829.1,5.02,0.00,31.5,27.7,00.0,38.9,31.8,32.8,0000.0,0006.18,0012.32,0004.64
2022-07-23 22:21:00,,0829.0,5.00,0.00,31.4,27.2,00.0,38.9,31.7,33.4,0000.0,0006.12,0012.11,0004.65
2022-07-23 22:22:00,,0828.9,4.99,0.00,31.3,27.0,00.0,38.9,31.7,34.5,0000.0,0006.07,0011.91,0004.66
2022-07-23 22:23:00,,0828.8,5.01,0.00,31.2,27.0,00.0,39.0,31.5,34.3,0000.0,0006.04,0011.80,0004.67
2022-07-23 22:24:00,,0829.0,5.00,0.00,31.1,27.2,00.0,39.0,31.5,35.3,0000.0,0006.02,0011.82,0004.65
2022-07-23 22:25:00,,0829.2,5.00,0.00,31.2,27.4,00.0,39.1,31.7,35.9,0000.0,0005.95,0011.64,0004.64
2022-07-23 22:26:00,,0829.0,5.00,0.00,31.5,27.6,00.0,39.1,31.9,35.3,0000.0,0005.95,0011.57,0004.63
2022-07-23 22:27:00,,0828.9,5.00,0.00,31.8,27.7,00.0,39.1,32.1,36.2,0000.0,0005.92,0011.58,0004.63
2022-07-23 22:28:00,,0829.1,4.99,0.00,32.1,27.9,00.0,39.2,32.2,38.3,0000.0,0005.88,0011.34,0004.62
2022-07-23 22:29:00,,0829.3,5.01,0.00,32.5,28.1,00.0,39.3,32.4,36.9,0000.0,0005.81,0011.26,0004.60
2022-07-23 22:30:00,,0829.1,5.00,0.00,32.9,28.2,00.0,39.4,32.5,33.9,0000.0,0005.74,0011.00,0004.58
2022-07-23 22:31:00,,0829.2,4.99,0.00,33.1,27.9,00.0,39.4,32.5,33.4,0000.0,0005.65,0010.98,0004.55
2022-07-23 22:32:00,,0829.1,5.00,0.00,33.2,27.4,00.0,39.5,32.4,32.0,0000.0,0005.61,0011.51,0004.51
2022-07-23 22:33:00,,0828.7,5.01,0.00,33.2,27.1,00.0,39.6,32.2,31.6,0000.0,0005.56,0011.56,0004.46
2022-07-23 22:34:00,,0828.7,4.99,0.00,33.0,27.2,00.0,39.8,32.1,31.7,0000.0,0005.50,0011.56,0004.40
2022-07-23 22:35:00,,0828.7,5.01,0.00,32.9,27.3,00.0,39.9,32.0,29.5,0000.0,0005.40,0011.85,0004.33
2022-07-23 22:36:00,,0828.7,5.01,0.00,32.8,27.5,00.0,40.0,32.0,29.1,0000.0,0005.30,0011.85,0004.27
2022-07-23 22:37:00,,0829.1,4.99,0.00,32.7,27.7,00.0,40.0,32.1,29.7,0000.0,0005.19,0011.62,0004.20
2022-07-23 22:38:00,,0829.0,5.01,0.00,32.6,27.9,00.0,40.1,32.1,31.1,0000.0,0005.11,0011.53,0004.13
2022-07-23 22:39:00,,0828.7,4.99,0.00,32.5,28.1,00.0,40.1,32.2,31.5,0000.0,0005.02,0012.16,0004.07
2022-07-23 22:40:00,,0828.8,5.00,0.00,32.4,28.2,00.0,40.2,32.2,32.2,0000.0,0004.96,0012.38,0004.00
2022-07-23 22:41:00,,0828.8,4.99,0.00,32.4,28.4,00.0,40.2,32.3,31.2,0000.0,0004.91,0012.14,0003.96
2022-07-23 22:42:00,,0828.5,5.00,0.00,32.4,28.2,00.0,40.1,32.3,29.4,0000.0,0004.82,0011.70,0003.92
2022-07-23 22:43:00,,0828.5,4.99,0.00,32.3,27.6,00.0,40.1,32.2,30.0,0000.0,0004.75,0011.00,0003.87
2022-07-23 22:44:00,,0828.5,5.00,0.00,32.2,27.3,00.0,40.0,32.2,30.0,0000.0,0004.70,0010.82,0003.85
2022-07-23 22:45:00,,0828.4,5.00,0.00,32.1,27.3,00.0,40.0,32.0,30.7,0000.0,0004.65,0010.67,0003.82
2022-07-23 22:46:00,,0828.3,5.00,0.00,31.9,27.4,00.0,40.0,32.0,31.8,0000.0,0004.63,0010.19,0003.82
2022-07-23 22:47:00,,0828.3,5.00,0.00,31.8,27.6,00.0,40.0,32.0,32.3,0000.0,0004.69,0010.31,0003.83
2022-07-23 22:48:00,,0828.3,5.00,0.00,31.7,27.7,00.0,40.0,32.0,32.8,0000.0,0004.70,0010.35,0003.83
2022-07-23 22:49:00,,0828.3,5.00,0.00,31.6,27.9,00.0,39.9,32.0,33.9,0000.0,0004.72,0010.40,0003.84
2022-07-23 22:50:00,,0828.3,5.00,0.00,31.6,28.1,00.0,39.9,32.1,33.2,0000.0,0004.76,0009.46,0003.86
2022-07-23 22:51:00,,0828.3,4.99,0.00,31.5,28.3,00.0,39.9,32.1,33.4,0000.0,0004.74,0008.75,0003.86
2022-07-23 22:52:00,,0828.3,5.01,0.00,31.5,28.4,00.0,39.9,32.2,33.1,0000.0,0004.72,0008.69,0003.87
2022-07-23 22:53:00,,0828.3,4.98,0.00,31.5,28.0,00.0,39.8,32.1,32.9,0000.0,0004.77,0008.92,0003.87
2022-07-23 22:54:00,,0828.3,5.01,0.00,31.4,27.4,00.0,39.7,32.0,32.7,0000.0,0004.80,0009.07,0003.87
2022-07-23 22:55:00,,0828.3,5.00,0.00,31.3,27.2,00.0,39.6,32.0,32.9,0000.0,0004.80,0009.10,0003.86
2022-07-23 22:56:00,,0828.3,5.00,0.00,31.2,27.3,00.0,39.6,31.9,32.3,0000.0,0004.77,0008.99,0003.85
2022-07-23 22:57:00,,0828.3,5.00,0.00,31.1,27.4,00.0,39.6,31.8,32.1,0000.0,0004.73,0008.90,0003.84
2022-07-23 22:58:00,,0828.3,4.99,0.00,31.0,27.6,00.0,39.5,31.8,32.0,0000.0,0004.70,0008.72,0003.82
2022-07-23 22:59:00,,0828.3,5.01,0.00,30.9,27.7,00.0,39.5,31.8,31.8,0000.0,0004.68,0008.83,0003.80
